Location: AstroGeek's Observatory
(41.9520°N, 70.9880°W)
Time: 19:09:03
(UTC-04:00)

ISS - All Passes

Search period start: 02 July 2015 00:00
Search period end: 12 July 2015 00:00
Orbit: 398 x 403 km, 51.6° (Epoch: 02 July)

Date Brightness Start Highest point End Pass type
(mag) Time Alt. Az. Time Alt. Az. Time Alt. Az.
02 Jul - 08:01:58 10° SSE 08:03:18 12° SE 08:04:45 10° ESE daylight
02 Jul - 09:36:05 10° WSW 09:39:19 77° NW 09:42:35 10° NE daylight
02 Jul - 11:13:40 10° WNW 11:16:08 19° NNW 11:18:36 10° NE daylight
02 Jul - 12:51:25 10° NNW 12:53:26 15° N 12:55:27 10° NE daylight
02 Jul - 14:27:34 10° NW 14:30:34 32° NNE 14:33:32 10° E daylight
02 Jul - 16:03:58 10° WNW 16:06:58 34° SW 16:09:56 10° SSE daylight
03 Jul - 08:42:42 10° SW 08:45:52 54° SE 08:49:03 10° ENE daylight
03 Jul - 10:19:38 10° W 10:22:27 26° NNW 10:25:14 10° NE daylight
03 Jul - 11:57:42 10° NW 11:59:39 15° N 12:01:35 10° NE daylight
03 Jul - 13:34:14 10° NW 13:36:53 23° NNE 13:39:34 10° ENE daylight
03 Jul - 15:10:19 10° WNW 15:13:33 70° SW 15:16:46 10° SE daylight
04 Jul - 07:49:42 10° SSW 07:52:29 27° SE 07:55:18 10° ENE daylight
04 Jul - 09:25:43 10° W 09:28:47 38° NNW 09:31:52 10° NE daylight
04 Jul - 11:03:45 10° NW 11:05:51 16° N 11:07:57 10° NNE daylight
04 Jul - 12:40:50 10° NNW 12:43:09 18° NNE 12:45:30 10° ENE daylight
04 Jul - 14:16:50 10° NW 14:20:04 61° NNE 14:23:16 10° ESE daylight
04 Jul - 15:54:05 10° W 15:56:09 16° SW 15:58:09 10° S daylight
05 Jul - 06:57:22 10° SSE 06:59:08 14° SE 07:01:01 10° E daylight
05 Jul - 08:31:59 10° WSW 08:35:13 67° NNW 08:38:27 10° NE daylight
05 Jul - 10:09:41 10° WNW 10:12:04 19° NNW 10:14:27 10° NNE daylight
05 Jul - 11:47:19 10° NNW 11:49:22 16° N 11:51:26 10° NE daylight
05 Jul - 13:23:25 10° NW 13:26:28 36° NNE 13:29:30 10° E daylight
05 Jul - 14:59:55 10° WNW 15:02:49 30° SW 15:05:41 10° SSE daylight
06 Jul - 07:38:30 10° SW 07:41:42 63° SE 07:44:56 10° ENE daylight
06 Jul - 09:15:35 10° WNW 09:18:20 24° NNW 09:21:03 10° NE daylight
06 Jul - 10:53:36 10° NW 10:55:34 15° N 10:57:30 10° NE daylight
06 Jul - 12:30:02 10° NW 12:32:47 24° NNE 12:35:31 10° ENE daylight
06 Jul - 14:06:11 10° WNW 14:09:23 60° SW 14:12:34 10° SE daylight
07 Jul - 06:45:21 10° SSW 06:48:16 31° SE 06:51:12 10° ENE daylight
07 Jul - 08:21:36 10° W 08:24:37 35° NNW 08:27:40 10° NE daylight
07 Jul - 09:59:40 10° NW 10:01:43 15° N 10:03:46 10° NNE daylight
07 Jul - 11:36:37 10° NNW 11:39:01 19° NNE 11:41:26 10° ENE daylight
07 Jul - 13:12:37 10° NW 13:15:52 70° NNE 13:19:05 10° ESE daylight
07 Jul - 14:50:10 10° W 14:51:55 14° SW 14:53:35 10° SSW daylight
08 Jul - 05:52:47 10° S 05:54:52 16° SE 05:57:02 10° E daylight
08 Jul - 07:27:47 10° WSW 07:30:59 59° NNW 07:34:13 10° NE daylight
08 Jul - 09:05:34 10° WNW 09:07:54 18° NNW 09:10:13 10° NNE daylight
08 Jul - 10:43:06 10° NNW 10:45:12 16° N 10:47:19 10° NE daylight
08 Jul - 12:19:10 10° NW 12:22:15 39° NNE 12:25:19 10° E daylight
08 Jul - 13:55:46 10° WNW 13:58:33 26° SW 14:01:17 10° SSE daylight
09 Jul - 06:34:12 10° SW 06:37:26 73° SE 06:40:41 10° ENE daylight
09 Jul - 08:11:26 10° WNW 08:14:06 23° NNW 08:16:45 10° NE daylight
09 Jul - 09:49:24 10° NW 09:51:21 15° N 09:53:18 10° NE daylight
09 Jul - 11:25:44 10° NW 11:28:32 26° NNE 11:31:21 10° E daylight
09 Jul - 13:01:56 10° WNW 13:05:06 52° SW 13:08:14 10° SE daylight
10 Jul - 05:40:56 10° SSW 05:43:56 36° SE 05:46:58 10° ENE daylight
10 Jul - 07:17:22 10° W 07:20:21 32° NNW 07:23:20 10° NE daylight
10 Jul - 08:55:27 10° NW 08:57:28 15° N 08:59:29 10° NNE daylight
10 Jul - 10:32:17 10° NW 10:34:45 20° NNE 10:37:14 10° ENE daylight
10 Jul - 12:08:18 10° NW 12:11:33 80° NE 12:14:47 10° ESE daylight
10 Jul - 13:46:14 10° WSW 13:47:33 12° SW 13:48:46 10° SSW daylight
11 Jul - 04:48:10 10° S 04:50:29 19° SE 04:52:53 10° E daylight
11 Jul - 06:23:28 10° WSW 06:26:40 52° NNW 06:29:51 10° NE daylight
11 Jul - 08:01:20 10° NW 08:03:36 17° N 08:05:52 10° NNE daylight
11 Jul - 09:38:45 10° NNW 09:40:55 16° N 09:43:05 10° NE daylight
11 Jul - 11:14:47 10° NW 11:17:55 44° NNE 11:21:02 10° ESE daylight
11 Jul - 12:51:31 10° W 12:54:09 23° SW 12:56:45 10° S daylight
